Regional Weather Roundup
Issued by NWS

Home | Current Version | Previous Version | Text Only | Print | Product List | Glossary On
Versions: 1 2 3 4 5 6 7 8 9 10 11 12 13 14 15 16 17 18 19 20 21 22 23 24 25 26 27
000
ASUS42 KFFC 251403
RWRGA
WEATHER ROUNDUP FOR GEORGIA
NATIONAL WEATHER SERVICE PEACHTREE CITY GA
1000 AM EDT SUN SEP 25 2016

NOTE: "FAIR" INDICATES FEW OR NO CLOUDS BELOW 12,000 FEET WITH NO
SIGNIFICANT WEATHER AND/OR OBSTRUCTIONS TO VISIBILITY.

* = USE WITH CAUTION. THE STATIONS MARKED WITH AN ASTERISK MAY NOT
REPORT WEATHER SUCH AS PRECIPITATION, FOG, OR THUNDER AND ARE NOT
QUALITY CONTROLLED BY NWS.

THE REMARK "TC" DENOTES TEMPERATURE READING IN DEGREES CELSIUS.

GAZ001>058-251500-
NORTH GEORGIA

CITY           SKY/WX    TMP DP  RH WIND       PRES   REMARKS
ATLANTA        PTSUNNY   80  68  66 E6        30.12R
ATHENS         SUNNY     78  67  68 E3        30.13R
CHAMBLEE       SUNNY     80  67  64 CALM      30.12S
PEACHTREE CITY SUNNY     77  70  79 CALM      30.12R
ROME           SUNNY     76  64  66 NE3       30.10F
WEST ATLANTA   SUNNY     76  67  73 NE5       30.11S
GAINESVILLE    SUNNY     79  67  66 NE3       30.16S
CARTERSVILLE   SUNNY     75  68  78 CALM      30.12S


CITY           SKY/WX    TMP DP  RH WIND       PRES   REMARKS
DALTON*        SUNNY     73  64  73 CALM      30.12S
LAWRENCEVILLE* SUNNY     79  66  65 NE6       30.13R
MARIETTA       MOSUNNY   78  67  68 VRB2      30.12S
KENNESAW*      SUNNY     75  66  73 E3        30.10F
CANTON*        SUNNY     73  61  64 CALM      30.15S
BLAIRSVILLE*     N/A    N/A N/A N/A MISG      30.18F
$$

GAZ059>098-102>109-251500-
CENTRAL GEORGIA

CITY           SKY/WX    TMP DP  RH WIND       PRES   REMARKS
AUGUSTA-BUSH   SUNNY     78  70  76 NE5       30.10S
AUGUSTA-DANIEL SUNNY     81  67  62 NE3       30.12R
COLUMBUS       SUNNY     79  67  66 CALM      30.07S
MACON          SUNNY     80  71  74 E5        30.09R
ROBINS AFB     SUNNY     79  72  79 SE3       30.09R


CITY           SKY/WX    TMP DP  RH WIND       PRES   REMARKS
LAGRANGE*      SUNNY     80  71  73 CALM      30.09S
MILLEDGEVILLE* SUNNY     79  72  78 CALM      30.10S
$$

GAZ099>101-110>166-251500-
SOUTH GEORGIA

CITY           SKY/WX    TMP DP  RH WIND       PRES   REMARKS
SAVANNAH       PTSUNNY   80  73  79 N7        30.08F
VALDOSTA       SUNNY     81  75  82 E3        30.06F
ALMA           SUNNY     81  72  74 CALM      30.08R
ST SIMONS      SUNNY     81  73  76 N8        30.06F
FT STEWART     MOSUNNY   79  73  82 N2        30.06S
ALBANY         SUNNY     81  72  74 VRB3      30.09S
HUNTER AFB     MOSUNNY   80  80  99 NE5       30.05F
MOODY AFB      MOSUNNY   82  70  66 SE3       30.05F
BRUNSWICK      SUNNY     81  77  89 N6        30.08S


CITY           SKY/WX    TMP DP  RH WIND       PRES   REMARKS
BAINBRIDGE*    SUNNY     81  73  78 CALM      30.06S
MOULTRIE*      SUNNY     79  73  83 SE3       30.08S
VIDALIA*       CLOUDY    81  77  89 NE3       30.10R
WAYCROSS*      SUNNY     84  77  80 N5        30.07S HX  94
DOUGLAS*       SUNNY     82  68  61 CALM      30.09S
$$




USA.gov is the U.S. government's official web portal to all federal, state and local government web resources and services.